Flag for Germany Weather past 2 weeks in Lüneburg, Lower Saxony, Germany

Now
63 °F

Partly sunny.


Feels Like: 63 °F
Forecast: 44 / 61 °F
Wind: 6 mph from West

Location: Fassberg

Current Time: May 22, 2015 at 9:52:52 PM

Latest Report: May 22, 2015 at 8:20 PM


Visibility: N/A

Pressure: 30.18 "Hg

Humidity: 52%

Dew point: 45 °F

Location of LüneburgLocation

Historic Weather in Lüneburg — Graph

°F

Lüneburg temperature yesterday

Maximum temperature yesterday: 59 °F (at 5:20 PM)
Minimum temperature yesterday: 36 °F (at 3:20 AM)
Average temperature yesterday: 49 °F

Past Weeks' High & Low Weather Summary

 TemperatureHumidityPressure
High77 °F (May 12, 2:20 PM)100% (May 8, 1:20 AM)30.36 "Hg (May 8, 1:20 AM)
Low32 °F (May 16, 5:20 AM)33% (May 11, 4:20 PM)29.59 "Hg (May 18, 9:20 PM)
Average53 °F68%30.04 "Hg
* Reported May 7 8:20 PM — May 22 8:20 PM, Lüneburg, Weather by CustomWeather, © 2015

Note: Actual official high and low records may vary slightly from our data, if they occured in-between our weather recording intervals... More about our weather records

Advertising

Lüneburg weather history for previous 24 hours

 ConditionsComfort  
Time TempWeatherWind HumidityBarometerVisibility
8:20 PM
Fri, May 22
63 °FPartly sunny.6 mph52%30.18 "HgN/A
7:20 PM64 °FPartly sunny.7 mph46%30.18 "HgN/A
6:20 PM64 °FPartly sunny.8 mph49%30.18 "HgN/A
5:20 PM64 °FPartly sunny.7 mph49%30.21 "HgN/A
4:20 PM66 °FPartly sunny.10 mph43%30.21 "HgN/A
3:20 PM64 °FPartly sunny.10 mph46%30.21 "HgN/A
2:20 PM64 °FPartly sunny.8 mph46%30.24 "HgN/A
1:20 PM64 °FScattered clouds.8 mph46%30.24 "HgN/A
12:20 PM63 °FScattered clouds.8 mph49%30.27 "HgN/A
12:00 PM63 °FScattered clouds.9 mph49%30.27 "HgN/A
11:20 AM61 °FBroken clouds.5 mph55%30.30 "HgN/A
10:20 AM57 °FBroken clouds.5 mph63%30.30 "HgN/A
9:20 AM55 °FPartly sunny.6 mph63%30.30 "HgN/A
8:20 AM52 °FPartly sunny.3 mph72%30.30 "HgN/A
7:20 AM46 °FPartly sunny.2 mph82%30.30 "HgN/A
6:20 AM39 °FScattered clouds.2 mph93%30.30 "HgN/A
5:20 AM36 °FFog.1 mph93%30.30 "HgN/A
4:20 AM37 °FFog.No wind93%30.30 "HgN/A
3:20 AM39 °FPassing clouds.No wind93%30.30 "HgN/A
2:20 AM41 °FPassing clouds.1 mph87%30.30 "HgN/A
1:20 AM41 °FPassing clouds.2 mph93%30.30 "HgN/A
12:20 AM45 °FPassing clouds.1 mph87%30.30 "HgN/A
11:20 PM
Thu, May 21
46 °FPassing clouds.1 mph82%30.30 "HgN/A
10:20 PM46 °FPassing clouds.1 mph76%30.30 "HgN/A
9:20 PM52 °FPassing clouds.1 mph58%30.27 "HgN/A
Weather by CustomWeather, © 2015

See weather overviewHow to use our weather pages